| time (UTC) | temp F | wind direction | speed knots | gust knots | rain 1hr in | rain 24hr in | rain mn in | humidity % | barometer mb |
| 20260901014609 | 85 | 166 | 0.0 | 0.9 | 0.00 | 0.00 | 0.00 | 67 | 1015.7 |
| 20260901014531 | 85 | 166 | 0.0 | 0.9 | 0.00 | 0.00 | 0.00 | 67 | 1017.3 |
| 20260901014002 | 85 | 166 | 0.0 | 0.9 | 0.00 | 0.00 | 0.00 | 66 | 1017.3 |
| 20260901013502 | 85 | 166 | 0.9 | 1.7 | 0.00 | 0.00 | 0.00 | 66 | 1017.3 |
| 20260901013028 | 85 | 166 | 0.0 | 1.7 | 0.00 | 0.00 | 0.00 | 66 | 1015.5 |
| 20260901012953 | 85 | 166 | 0.0 | 1.7 | 0.00 | 0.00 | 0.00 | 66 | 1017.2 |
| 20260901012453 | 86 | 166 | 0.9 | 1.7 | 0.00 | 0.00 | 0.00 | 66 | 1017.2 |
| 20260901011923 | 86 | 166 | 0.9 | 1.7 | 0.00 | 0.00 | 0.00 | 66 | 1017.2 |
| 20260901011501 | 85 | 166 | 0.0 | 1.7 | 0.00 | 0.00 | 0.00 | 66 | 1015.4 |
| 20260901011422 | 86 | 166 | 0.9 | 1.7 | 0.00 | 0.00 | 0.00 | 66 | 1017.2 |
| 20260901010908 | 86 | 166 | 0.9 | 1.7 | 0.00 | 0.00 | 0.00 | 66 | 1017.1 |
| 20260901010411 | 86 | 166 | 0.0 | 0.9 | 0.00 | 0.00 | 0.00 | 66 | 1017.1 |
| 20260901010035 | 85 | 166 | 0.0 | 1.7 | 0.00 | 0.00 | 0.00 | 65 | 1015.4 |
| 20260901005844 | 86 | 166 | 0.0 | 1.7 | 0.00 | 0.00 | 0.00 | 65 | 1017.0 |
| 20260901005317 | 86 | 167 | 0.0 | 0.9 | 0.00 | 0.00 | 0.00 | 65 | 1017.0 |
| 20260901004751 | 86 | 167 | 0.0 | 2.6 | 0.00 | 0.00 | 0.00 | 65 | 1016.8 |
| 20260901004548 | 86 | 167 | 0.0 | 1.7 | 0.00 | 0.00 | 0.00 | 65 | 1015.2 |
| 20260901004252 | 86 | 167 | 0.9 | 2.6 | 0.00 | 0.00 | 0.00 | 65 | 1016.8 |
| 20260901003745 | 87 | 167 | 0.9 | 2.6 | 0.00 | 0.00 | 0.00 | 64 | 1016.7 |
| 20260901003217 | 87 | 167 | 1.7 | 3.5 | 0.00 | 0.00 | 0.00 | 64 | 1016.6 |
| 20260901003037 | 86 | 144 | 0.9 | 3.5 | 0.00 | 0.00 | 0.00 | 64 | 1015.0 |
| 20260901002651 | 87 | 143 | 0.9 | 3.5 | 0.00 | 0.00 | 0.00 | 64 | 1016.5 |
| 20260901002149 | 87 | 195 | 0.9 | 3.5 | 0.00 | 0.00 | 0.00 | 64 | 1016.4 |
| 20260901001627 | 87 | 207 | 0.9 | 3.5 | 0.00 | 0.00 | 0.00 | 63 | 1016.3 |
| 20260901001612 | 87 | 198 | 1.7 | 7.8 | 0.00 | 0.00 | 0.00 | 63 | 1016.3 |
| 20260901001533 | 87 | 184 | 0.0 | 3.5 | 0.00 | 0.00 | 0.00 | 63 | 1014.8 |
| 20260901001055 | 87 | 173 | 2.6 | 7.8 | 0.00 | 0.00 | 0.00 | 62 | 1016.2 |
| 20260901000325 | 88 | 172 | 2.6 | 7.0 | 0.00 | 0.00 | 0.00 | 62 | 1016.2 |
| 20260901000031 | 87 | 167 | 1.7 | 6.1 | 0.00 | 0.00 | 0.00 | 62 | 1014.7 |
| 20260831235538 | 88 | 129 | 3.5 | 6.1 | 0.00 | 0.00 | 0.00 | 62 | 1016.1 |
| 20260831235018 | 88 | 158 | 3.5 | 8.7 | 0.00 | 0.00 | 0.00 | 62 | 1016.1 |
| 20260831234601 | 88 | 138 | 3.5 | 8.7 | 0.00 | 0.00 | 0.00 | 62 | 1014.5 |
| 20260831234520 | 88 | 210 | 2.6 | 7.8 | 0.00 | 0.00 | 0.00 | 61 | 1016.0 |
| 20260831234216 | 88 | 176 | 2.6 | 7.8 | 0.00 | 0.00 | 0.00 | 61 | 1016.0 |
| 20260831233457 | 88 | 209 | 2.6 | 7.8 | 0.00 | 0.00 | 0.00 | 61 | 1015.9 |
| 20260831233153 | 89 | 161 | 2.6 | 7.0 | 0.00 | 0.00 | 0.00 | 61 | 1015.7 |
| 20260831233009 | 88 | 213 | 2.6 | 7.8 | 0.00 | 0.00 | 0.00 | 60 | 1014.3 |
| 20260831232418 | 89 | 155 | 3.5 | 12.2 | 0.00 | 0.00 | 0.00 | 59 | 1015.7 |
| 20260831231850 | 89 | 107 | 3.5 | 12.2 | 0.00 | 0.00 | 0.00 | 59 | 1015.7 |
| 20260831231607 | 89 | 217 | 4.3 | 12.2 | 0.00 | 0.00 | 0.00 | 59 | 1014.1 |
| 20260831231347 | 89 | 147 | 2.6 | 9.6 | 0.00 | 0.00 | 0.00 | 59 | 1015.6 |
| 20260831230846 | 90 | 165 | 3.5 | 9.6 | 0.00 | 0.00 | 0.00 | 58 | 1015.6 |
| 20260831230356 | 90 | 182 | 4.3 | 10.4 | 0.00 | 0.00 | 0.00 | 57 | 1015.5 |
| 20260831230011 | 89 | 216 | 3.5 | 10.4 | 0.00 | 0.00 | 0.00 | 57 | 1014.0 |
| 20260831225815 | 89 | 115 | 4.3 | 10.4 | 0.00 | 0.00 | 0.00 | 57 | 1015.5 |
| 20260831225518 | 89 | 225 | 4.3 | 10.4 | 0.00 | 0.00 | 0.00 | 57 | 1015.6 |
| 20260831224740 | 89 | 139 | 2.6 | 10.4 | 0.00 | 0.00 | 0.00 | 56 | 1015.6 |
| 20260831224601 | 89 | 217 | 2.6 | 9.6 | 0.00 | 0.00 | 0.00 | 57 | 1014.2 |
| 20260831224447 | 90 | 103 | 2.6 | 10.4 | 0.00 | 0.00 | 0.00 | 57 | 1015.7 |
| 20260831223725 | 90 | 226 | 3.5 | 10.4 | 0.00 | 0.00 | 0.00 | 56 | 1015.7 |
| 20260831223225 | 90 | 165 | 5.2 | 14.8 | 0.00 | 0.00 | 0.00 | 54 | 1015.7 |
| 20260831223045 | 90 | 197 | 5.2 | 14.8 | 0.00 | 0.00 | 0.00 | 54 | 1014.2 |
| 20260831222920 | 91 | 165 | 5.2 | 13.9 | 0.00 | 0.00 | 0.00 | 54 | 1015.7 |
| 20260831222424 | 91 | 149 | 5.2 | 10.4 | 0.00 | 0.00 | 0.00 | 54 | 1015.9 |
| 20260831221655 | 91 | 124 | 4.3 | 12.2 | 0.00 | 0.00 | 0.00 | 52 | 1016.0 |
| 20260831221512 | 91 | 206 | 4.3 | 12.2 | 0.00 | 0.00 | 0.00 | 52 | 1014.5 |
| 20260831221154 | 91 | 163 | 4.3 | 12.2 | 0.00 | 0.00 | 0.00 | 53 | 1016.1 |
| 20260831220651 | 91 | 171 | 5.2 | 12.2 | 0.00 | 0.00 | 0.00 | 52 | 1016.1 |
| 20260831220132 | 91 | 190 | 4.3 | 12.2 | 0.00 | 0.00 | 0.00 | 53 | 1016.1 |
| 20260831220057 | 91 | 110 | 5.2 | 8.7 | 0.00 | 0.00 | 0.00 | 52 | 1014.7 |
| 20260831215632 | 91 | 151 | 3.5 | 8.7 | 0.00 | 0.00 | 0.00 | 53 | 1016.2 |
| 20260831215132 | 91 | 130 | 3.5 | 10.4 | 0.00 | 0.00 | 0.00 | 52 | 1016.4 |
| 20260831214638 | 91 | 192 | 3.5 | 10.4 | 0.00 | 0.00 | 0.00 | 54 | 1015.0 |
| 20260831214610 | 91 | 149 | 3.5 | 10.4 | 0.00 | 0.00 | 0.00 | 53 | 1016.5 |
| 20260831214041 | 91 | 163 | 3.5 | 10.4 | 0.00 | 0.00 | 0.00 | 52 | 1016.4 |
| 20260831213520 | 91 | 113 | 4.3 | 11.3 | 0.00 | 0.00 | 0.00 | 52 | 1016.5 |
| 20260831213242 | 92 | 211 | 2.6 | 11.3 | 0.00 | 0.00 | 0.00 | 51 | 1016.6 |
| 20260831213005 | 91 | 193 | 5.2 | 11.3 | 0.00 | 0.00 | 0.00 | 52 | 1015.1 |
| 20260831212514 | 92 | 159 | 2.6 | 9.6 | 0.00 | 0.00 | 0.00 | 51 | 1016.6 |
| 20260831211952 | 92 | 163 | 3.5 | 8.7 | 0.00 | 0.00 | 0.00 | 52 | 1016.6 |
| 20260831211512 | 91 | 238 | 3.5 | 11.3 | 0.00 | 0.00 | 0.00 | 52 | 1015.2 |
| 20260831211429 | 92 | 196 | 4.3 | 11.3 | 0.00 | 0.00 | 0.00 | 51 | 1016.7 |
| 20260831210901 | 92 | 195 | 4.3 | 11.3 | 0.00 | 0.00 | 0.00 | 52 | 1016.8 |
| 20260831210338 | 92 | 206 | 4.3 | 9.6 | 0.00 | 0.00 | 0.00 | 50 | 1016.8 |
| 20260831210004 | 92 | 224 | 3.5 | 11.3 | 0.00 | 0.00 | 0.00 | 50 | 1015.3 |
| 20260831205816 | 92 | 201 | 4.3 | 11.3 | 0.00 | 0.00 | 0.00 | 49 | 1017.0 |
| 20260831205252 | 92 | 182 | 3.5 | 11.3 | 0.00 | 0.00 | 0.00 | 48 | 1017.0 |
| 20260831204741 | 92 | 194 | 3.5 | 8.7 | 0.00 | 0.00 | 0.00 | 49 | 1017.0 |
| 20260831204554 | 92 | 188 | 3.5 | 8.7 | 0.00 | 0.00 | 0.00 | 50 | 1015.5 |
| 20260831204507 | 92 | 147 | 3.5 | 8.7 | 0.00 | 0.00 | 0.00 | 49 | 1017.1 |
| 20260831203741 | 93 | 186 | 3.5 | 8.7 | 0.00 | 0.00 | 0.00 | 50 | 1017.1 |
| 20260831203237 | 92 | 188 | 3.5 | 8.7 | 0.00 | 0.00 | 0.00 | 50 | 1017.1 |
| 20260831203012 | 92 | 175 | 2.6 | 8.7 | 0.00 | 0.00 | 0.00 | 51 | 1015.6 |
| 20260831202710 | 92 | 128 | 4.3 | 8.7 | 0.00 | 0.00 | 0.00 | 49 | 1017.3 |
| 20260831202202 | 92 | 216 | 4.3 | 10.4 | 0.00 | 0.00 | 0.00 | 50 | 1017.2 |
| 20260831201632 | 92 | 189 | 4.3 | 9.6 | 0.00 | 0.00 | 0.00 | 51 | 1017.3 |
| 20260831201540 | 91 | 187 | 3.5 | 9.6 | 0.00 | 0.00 | 0.00 | 51 | 1015.7 |
| 20260831201354 | 92 | 155 | 4.3 | 10.4 | 0.00 | 0.00 | 0.00 | 52 | 1017.4 |
| 20260831200626 | 92 | 212 | 4.3 | 10.4 | 0.00 | 0.00 | 0.00 | 53 | 1017.5 |
| 20260831200058 | 92 | 231 | 2.6 | 8.7 | 0.00 | 0.00 | 0.00 | 52 | 1016.0 |
| 20260831195752 | 92 | 157 | 4.3 | 7.8 | 0.00 | 0.00 | 0.00 | 52 | 1017.7 |
| 20260831195011 | 91 | 181 | 3.5 | 10.4 | 0.00 | 0.00 | 0.00 | 54 | 1017.7 |
| 20260831194616 | 90 | 144 | 2.6 | 7.8 | 0.00 | 0.00 | 0.00 | 56 | 1017.8 |
| 20260831194523 | 90 | 180 | 5.2 | 10.4 | 0.00 | 0.00 | 0.00 | 54 | 1016.3 |
| 20260831194511 | 91 | 120 | 3.5 | 7.8 | 0.00 | 0.00 | 0.00 | 54 | 1017.8 |
| 20260831193347 | 91 | 192 | 3.5 | 8.7 | 0.00 | 0.00 | 0.00 | 56 | 1018.0 |
| 20260831193111 | 91 | 170 | 3.5 | 7.8 | 0.00 | 0.00 | 0.00 | 53 | 1017.9 |
| 20260831193036 | 90 | 204 | 3.5 | 8.7 | 0.00 | 0.00 | 0.00 | 54 | 1016.4 |
| 20260831192544 | 91 | 139 | 3.5 | 8.7 | 0.00 | 0.00 | 0.00 | 56 | 1017.9 |
| 20260831191757 | 91 | 205 | 3.5 | 8.7 | 0.00 | 0.00 | 0.00 | 56 | 1017.9 |
| 20260831191505 | 90 | 122 | 3.5 | 8.7 | 0.00 | 0.00 | 0.00 | 57 | 1016.4 |
| 20260831191229 | 90 | 192 | 3.5 | 9.6 | 0.00 | 0.00 | 0.00 | 56 | 1018.0 |
| 20260831190725 | 91 | 163 | 3.5 | 9.6 | 0.00 | 0.00 | 0.00 | 55 | 1018.0 |
| 20260831190450 | 92 | 136 | 2.6 | 8.7 | 0.00 | 0.00 | 0.00 | 53 | 1018.1 |
| 20260831190109 | 91 | 103 | 3.5 | 8.7 | 0.00 | 0.00 | 0.00 | 53 | 1016.6 |
| 20260831185717 | 91 | 201 | 2.6 | 7.0 | 0.00 | 0.00 | 0.00 | 56 | 1018.1 |
| 20260831185216 | 91 | 199 | 3.5 | 7.8 | 0.00 | 0.00 | 0.00 | 55 | 1018.2 |
| 20260831184652 | 90 | 218 | 2.6 | 7.8 | 0.00 | 0.00 | 0.00 | 55 | 1018.2 |
| 20260831184510 | 90 | 206 | 1.7 | 7.8 | 0.00 | 0.00 | 0.00 | 58 | 1016.7 |
| 20260831184146 | 90 | 225 | 2.6 | 10.4 | 0.00 | 0.00 | 0.00 | 58 | 1018.3 |
| 20260831183645 | 90 | 151 | 3.5 | 10.4 | 0.00 | 0.00 | 0.00 | 55 | 1018.3 |
| 20260831183139 | 91 | 194 | 3.5 | 9.6 | 0.00 | 0.00 | 0.00 | 55 | 1018.3 |
| 20260831183048 | 90 | 193 | 2.6 | 8.7 | 0.00 | 0.00 | 0.00 | 56 | 1016.8 |
| 20260831182904 | 90 | 165 | 3.5 | 9.6 | 0.00 | 0.00 | 0.00 | 55 | 1018.3 |
| 20260831182114 | 90 | 152 | 4.3 | 10.4 | 0.00 | 0.00 | 0.00 | 54 | 1018.3 |
| 20260831181548 | 90 | 164 | 4.3 | 10.4 | 0.00 | 0.00 | 0.00 | 56 | 1018.4 |
| 20260831181523 | 90 | 190 | 3.5 | 10.4 | 0.00 | 0.00 | 0.00 | 59 | 1016.9 |
| 20260831181018 | 90 | 205 | 3.5 | 9.6 | 0.00 | 0.00 | 0.00 | 58 | 1018.4 |
| 20260831180518 | 91 | 202 | 4.3 | 9.6 | 0.00 | 0.00 | 0.00 | 58 | 1018.5 |
| 20260831180011 | 91 | 155 | 5.2 | 9.6 | 0.00 | 0.00 | 0.00 | 57 | 1017.0 |
| 20260831175948 | 91 | 191 | 4.3 | 11.3 | 0.00 | 0.00 | 0.00 | 57 | 1018.5 |
| 20260831175448 | 91 | 199 | 3.5 | 11.3 | 0.00 | 0.00 | 0.00 | 57 | 1018.5 |
| 20260831174918 | 91 | 168 | 4.3 | 11.3 | 0.00 | 0.00 | 0.00 | 61 | 1018.6 |
| 20260831174607 | 90 | 215 | 3.5 | 14.8 | 0.00 | 0.00 | 0.00 | 60 | 1017.1 |
| 20260831174418 | 90 | 215 | 5.2 | 14.8 | 0.00 | 0.00 | 0.00 | 61 | 1018.6 |
| 20260831173848 | 89 | 215 | 3.5 | 13.9 | 0.00 | 0.00 | 0.00 | 62 | 1018.6 |
| 20260831173346 | 89 | 167 | 2.6 | 7.8 | 0.00 | 0.00 | 0.00 | 62 | 1018.7 |
| 20260831173102 | 88 | 194 | 1.7 | 7.8 | 0.00 | 0.00 | 0.00 | 63 | 1017.3 |
| 20260831172818 | 89 | 185 | 2.6 | 8.7 | 0.00 | 0.00 | 0.00 | 62 | 1018.9 |
| 20260831172541 | 90 | 234 | 3.5 | 8.7 | 0.00 | 0.00 | 0.00 | 61 | 1018.8 |
| 20260831171812 | 90 | 136 | 3.5 | 8.7 | 0.00 | 0.00 | 0.00 | 63 | 1018.8 |
| 20260831171610 | 89 | 201 | 2.6 | 8.7 | 0.00 | 0.00 | 0.00 | 63 | 1017.3 |
| 20260831171310 | 89 | 134 | 3.5 | 8.7 | 0.00 | 0.00 | 0.00 | 64 | 1018.8 |
| 20260831170744 | 89 | 182 | 3.5 | 7.8 | 0.00 | 0.00 | 0.00 | 66 | 1018.8 |
| 20260831170511 | 88 | 201 | 4.3 | 10.4 | 0.00 | 0.00 | 0.00 | 66 | 1018.8 |
| 20260831170059 | 88 | 200 | 3.5 | 10.4 | 0.00 | 0.00 | 0.00 | 65 | 1017.4 |
| 20260831165717 | 88 | 178 | 3.5 | 9.6 | 0.00 | 0.00 | 0.00 | 68 | 1018.9 |
| 20260831165208 | 87 | 208 | 3.5 | 9.6 | 0.00 | 0.00 | 0.00 | 66 | 1019.0 |
| 20260831164708 | 87 | 84 | 2.6 | 9.6 | 0.00 | 0.00 | 0.00 | 67 | 1019.0 |
| 20260831164526 | 87 | 169 | 1.7 | 9.6 | 0.00 | 0.00 | 0.00 | 68 | 1017.5 |
| 20260831164139 | 87 | 177 | 2.6 | 6.1 | 0.00 | 0.00 | 0.00 | 67 | 1019.1 |
| 20260831163637 | 87 | 211 | 2.6 | 7.0 | 0.00 | 0.00 | 0.00 | 67 | 1019.1 |
| 20260831163108 | 88 | 202 | 3.5 | 9.6 | 0.00 | 0.00 | 0.00 | 65 | 1019.2 |
| 20260831163049 | 88 | 184 | 3.5 | 9.6 | 0.00 | 0.00 | 0.00 | 64 | 1019.2 |
| 20260831163019 | 87 | 217 | 1.7 | 8.7 | 0.00 | 0.00 | 0.00 | 66 | 1017.6 |
| 20260831162055 | 88 | 109 | 4.3 | 11.3 | 0.00 | 0.00 | 0.00 | 66 | 1019.1 |
| 20260831161553 | 87 | 199 | 4.3 | 11.3 | 0.00 | 0.00 | 0.00 | 66 | 1017.7 |
| 20260831161551 | 87 | 200 | 4.3 | 11.3 | 0.00 | 0.00 | 0.00 | 66 | 1019.2 |
| 20260831161056 | 87 | 75 | 4.3 | 10.4 | 0.00 | 0.00 | 0.00 | 66 | 1019.1 |
| 20260831160526 | 87 | 128 | 4.3 | 10.4 | 0.00 | 0.00 | 0.00 | 66 | 1019.1 |
| 20260831160105 | 86 | 155 | 3.5 | 13.0 | 0.00 | 0.00 | 0.00 | 66 | 1017.7 |
| 20260831160025 | 87 | 203 | 5.2 | 13.0 | 0.00 | 0.00 | 0.00 | 68 | 1019.1 |
| 20260831155457 | 87 | 188 | 4.3 | 13.0 | 0.00 | 0.00 | 0.00 | 65 | 1019.1 |
| 20260831154956 | 87 | 101 | 4.3 | 10.4 | 0.00 | 0.00 | 0.00 | 68 | 1019.1 |
| 20260831154508 | 86 | 176 | 4.3 | 10.4 | 0.00 | 0.00 | 0.00 | 69 | 1017.5 |
| 20260831154429 | 86 | 144 | 3.5 | 9.6 | 0.00 | 0.00 | 0.00 | 69 | 1019.1 |
| 20260831153901 | 85 | 132 | 3.5 | 9.6 | 0.00 | 0.00 | 0.00 | 69 | 1019.0 |
| 20260831153335 | 85 | 100 | 2.6 | 6.1 | 0.00 | 0.00 | 0.00 | 69 | 1019.0 |
| 20260831153110 | 85 | 179 | 3.5 | 6.1 | 0.00 | 0.00 | 0.00 | 68 | 1017.5 |
| 20260831152809 | 85 | 194 | 2.6 | 7.8 | 0.00 | 0.00 | 0.00 | 70 | 1019.0 |
| 20260831152306 | 84 | 183 | 2.6 | 7.8 | 0.00 | 0.00 | 0.00 | 71 | 1019.0 |
| 20260831151734 | 84 | 172 | 2.6 | 7.0 | 0.00 | 0.00 | 0.00 | 72 | 1019.0 |
| 20260831151532 | 83 | 120 | 2.6 | 7.0 | 0.00 | 0.00 | 0.00 | 72 | 1017.5 |
| 20260831151232 | 83 | 96 | 2.6 | 7.0 | 0.00 | 0.00 | 0.00 | 71 | 1019.0 |
| 20260831150730 | 83 | 39 | 1.7 | 6.1 | 0.00 | 0.00 | 0.00 | 71 | 1019.0 |
| 20260831150202 | 83 | 155 | 1.7 | 6.1 | 0.00 | 0.00 | 0.00 | 73 | 1019.0 |
| 20260831150113 | 82 | 155 | 0.9 | 6.1 | 0.00 | 0.00 | 0.00 | 73 | 1017.6 |
| 20260831145921 | 83 | 153 | 1.7 | 6.1 | 0.00 | 0.00 | 0.00 | 73 | 1019.0 |
| 20260831145336 | 82 | 154 | 1.7 | 4.3 | 0.00 | 0.00 | 0.00 | 74 | 1019.0 |
| 20260831145216 | 82 | 121 | 1.7 | 4.3 | 0.00 | 0.00 | 0.00 | 74 | 1019.0 |
| 20260831144537 | 81 | 145 | 1.7 | 4.3 | 0.00 | 0.00 | 0.00 | 75 | 1017.5 |
| 20260831144350 | 81 | 119 | 1.7 | 4.3 | 0.00 | 0.00 | 0.00 | 77 | 1019.0 |
| 20260831143604 | 81 | 143 | 1.7 | 4.3 | 0.00 | 0.00 | 0.00 | 76 | 1019.0 |
| 20260831143058 | 80 | 133 | 1.7 | 4.3 | 0.00 | 0.00 | 0.00 | 76 | 1019.0 |
| 20260831143007 | 80 | 134 | 1.7 | 3.5 | 0.00 | 0.00 | 0.00 | 76 | 1017.6 |
| 20260831142555 | 80 | 142 | 1.7 | 4.3 | 0.00 | 0.00 | 0.00 | 77 | 1018.9 |
| 20260831142030 | 80 | 126 | 1.7 | 4.3 | 0.00 | 0.00 | 0.00 | 78 | 1018.8 |
| 20260831141649 | 79 | 113 | 1.7 | 4.3 | 0.00 | 0.00 | 0.00 | 78 | 1018.8 |
| 20260831141547 | 79 | 128 | 1.7 | 4.3 | 0.00 | 0.00 | 0.00 | 78 | 1017.3 |
| 20260831141540 | 79 | 127 | 1.7 | 4.3 | 0.00 | 0.00 | 0.00 | 78 | 1018.8 |
| 20260831140435 | 79 | 135 | 1.7 | 4.3 | 0.00 | 0.00 | 0.00 | 79 | 1018.8 |
| 20260831140339 | 79 | 136 | 1.7 | 3.5 | 0.00 | 0.00 | 0.00 | 79 | 1018.8 |
| 20260831140039 | 78 | 135 | 0.9 | 3.5 | 0.00 | 0.00 | 0.00 | 79 | 1017.3 |
| 20260831135958 | 79 | 135 | 1.7 | 3.5 | 0.00 | 0.00 | 0.00 | 79 | 1018.8 |
| 20260831134901 | 78 | 135 | 1.7 | 3.5 | 0.00 | 0.00 | 0.00 | 80 | 1018.8 |
| 20260831134542 | 78 | 135 | 0.9 | 3.5 | 0.00 | 0.00 | 0.00 | 80 | 1017.4 |
| 20260831134358 | 78 | 135 | 1.7 | 4.3 | 0.00 | 0.00 | 0.00 | 79 | 1018.8 |
| 20260831133852 | 78 | 136 | 1.7 | 4.3 | 0.00 | 0.00 | 0.00 | 79 | 1018.8 |
| 20260831133608 | 78 | 140 | 1.7 | 3.5 | 0.00 | 0.00 | 0.00 | 79 | 1018.8 |
| 20260831133100 | 78 | 140 | 1.7 | 3.5 | 0.00 | 0.00 | 0.00 | 79 | 1017.4 |
| 20260831132822 | 78 | 137 | 0.9 | 3.5 | 0.00 | 0.00 | 0.00 | 80 | 1018.8 |
| 20260831132322 | 78 | 137 | 1.7 | 3.5 | 0.00 | 0.00 | 0.00 | 80 | 1018.8 |
| 20260831131757 | 78 | 137 | 1.7 | 4.3 | 0.00 | 0.00 | 0.00 | 80 | 1018.8 |
| 20260831131510 | 77 | 136 | 0.9 | 4.3 | 0.00 | 0.00 | 0.00 | 80 | 1017.3 |
| 20260831130749 | 78 | 116 | 1.7 | 3.5 | 0.00 | 0.00 | 0.00 | 80 | 1018.7 |
| 20260831130224 | 78 | 113 | 1.7 | 4.3 | 0.00 | 0.00 | 0.00 | 80 | 1018.7 |
| 20260831130109 | 77 | 113 | 0.9 | 4.3 | 0.00 | 0.00 | 0.00 | 80 | 1017.3 |
| 20260831125656 | 77 | 118 | 1.7 | 3.5 | 0.00 | 0.00 | 0.00 | 80 | 1018.7 |
| 20260831125129 | 77 | 106 | 0.9 | 2.6 | 0.00 | 0.00 | 0.00 | 80 | 1018.7 |
| 20260831124628 | 77 | 104 | 0.9 | 3.5 | 0.00 | 0.00 | 0.00 | 82 | 1018.5 |
| 20260831124557 | 76 | 104 | 0.0 | 3.5 | 0.00 | 0.00 | 0.00 | 82 | 1017.1 |
| 20260831124100 | 76 | 204 | 0.9 | 2.6 | 0.00 | 0.00 | 0.00 | 82 | 1018.5 |
| 20260831123535 | 76 | 224 | 0.0 | 1.7 | 0.00 | 0.00 | 0.00 | 82 | 1018.6 |
| 20260831123034 | 76 | 232 | 0.0 | 0.9 | 0.00 | 0.00 | 0.00 | 82 | 1018.5 |
| 20260831123011 | 75 | 232 | 0.0 | 2.6 | 0.00 | 0.00 | 0.00 | 82 | 1017.1 |
| 20260831122525 | 76 | 232 | 0.9 | 2.6 | 0.00 | 0.00 | 0.00 | 82 | 1018.5 |
| 20260831121957 | 75 | 232 | 0.0 | 1.7 | 0.00 | 0.00 | 0.00 | 82 | 1018.5 |
| 20260831121714 | 75 | 232 | 0.0 | 0.9 | 0.00 | 0.00 | 0.00 | 82 | 1018.4 |
| 20260831121534 | 75 | 232 | 0.0 | 0.9 | 0.00 | 0.00 | 0.00 | 82 | 1017.0 |
| 20260831120946 | 75 | 232 | 0.0 | 0.9 | 0.00 | 0.00 | 0.00 | 82 | 1018.5 |
| 20260831120446 | 75 | 232 | 0.0 | 1.7 | 0.00 | 0.00 | 0.00 | 82 | 1018.5 |
| 20260831120149 | 75 | 233 | 0.0 | 1.7 | 0.00 | 0.00 | 0.00 | 82 | 1017.0 |
| 20260831115942 | 75 | 233 | 0.0 | 1.7 | 0.00 | 0.00 | 0.00 | 82 | 1018.5 |
| 20260831115701 | 75 | 233 | 0.0 | 2.6 | 0.00 | 0.00 | 0.00 | 82 | 1018.4 |
| 20260831115403 | 75 | 236 | 0.0 | 2.6 | 0.00 | 0.00 | 0.00 | 82 | 1018.4 |
| 20260831114541 | 75 | 236 | 0.0 | 2.6 | 0.00 | 0.00 | 0.00 | 82 | 1016.9 |
| 20260831114413 | 75 | 236 | 0.9 | 2.6 | 0.00 | 0.00 | 0.00 | 82 | 1018.3 |
| 20260831113912 | 75 | 242 | 0.9 | 2.6 | 0.00 | 0.00 | 0.00 | 82 | 1018.2 |
| 20260831113349 | 75 | 254 | 0.0 | 1.7 | 0.00 | 0.00 | 0.00 | 82 | 1018.2 |
| 20260831113012 | 74 | 254 | 0.0 | 0.9 | 0.00 | 0.00 | 0.00 | 82 | 1016.8 |
| 20260831112824 | 75 | 261 | 0.0 | 0.0 | 0.00 | 0.00 | 0.00 | 82 | 1018.1 |
| 20260831112301 | 75 | 261 | 0.0 | 0.0 | 0.00 | 0.00 | 0.00 | 82 | 1018.2 |
| 20260831111736 | 75 | 261 | 0.0 | 0.0 | 0.00 | 0.00 | 0.00 | 82 | 1018.1 |
| 20260831111600 | 74 | 261 | 0.0 | 0.0 | 0.00 | 0.00 | 0.00 | 82 | 1016.7 |
| 20260831111230 | 75 | 261 | 0.0 | 0.0 | 0.00 | 0.00 | 0.00 | 82 | 1018.1 |
| 20260831110733 | 75 | 261 | 0.0 | 0.0 | 0.00 | 0.00 | 0.00 | 81 | 1018.0 |
| 20260831110213 | 75 | 261 | 0.0 | 0.0 | 0.00 | 0.00 | 0.00 | 81 | 1018.0 |
| 20260831110012 | 75 | 261 | 0.0 | 0.0 | 0.00 | 0.00 | 0.00 | 81 | 1016.5 |
| 20260831105717 | 75 | 261 | 0.0 | 0.9 | 0.00 | 0.00 | 0.00 | 81 | 1017.9 |
| 20260831105201 | 75 | 261 | 0.0 | 0.9 | 0.00 | 0.00 | 0.00 | 81 | 1017.8 |
| 20260831104704 | 75 | 261 | 0.0 | 1.7 | 0.00 | 0.00 | 0.00 | 81 | 1017.8 |
| 20260831104531 | 75 | 261 | 0.0 | 0.9 | 0.00 | 0.00 | 0.00 | 81 | 1016.4 |
| 20260831104413 | 75 | 261 | 0.0 | 1.7 | 0.00 | 0.00 | 0.00 | 80 | 1017.7 |
| 20260831103647 | 75 | 261 | 0.0 | 2.6 | 0.00 | 0.00 | 0.00 | 80 | 1017.7 |
| 20260831103145 | 75 | 262 | 0.9 | 2.6 | 0.00 | 0.00 | 0.00 | 80 | 1017.6 |
| 20260831103049 | 75 | 262 | 0.0 | 2.6 | 0.00 | 0.00 | 0.00 | 80 | 1016.3 |
| 20260831102647 | 75 | 262 | 0.0 | 1.7 | 0.00 | 0.00 | 0.00 | 80 | 1017.7 |
| 20260831102138 | 75 | 262 | 0.0 | 0.9 | 0.00 | 0.00 | 0.00 | 80 | 1017.7 |
| 20260831101633 | 75 | 262 | 0.0 | 0.9 | 0.00 | 0.00 | 0.00 | 80 | 1017.6 |
| 20260831101608 | 75 | 262 | 0.0 | 0.9 | 0.00 | 0.00 | 0.00 | 80 | 1016.2 |
| 20260831101133 | 75 | 262 | 0.0 | 0.0 | 0.00 | 0.00 | 0.00 | 80 | 1017.6 |
| 20260831100634 | 76 | 262 | 0.0 | 0.0 | 0.00 | 0.00 | 0.00 | 79 | 1017.5 |
| 20260831100558 | 76 | 262 | 0.0 | 0.0 | 0.00 | 0.00 | 0.00 | 79 | 1017.5 |
| 20260831100018 | 75 | 262 | 0.0 | 0.0 | 0.00 | 0.00 | 0.00 | 79 | 1016.1 |
| 20260831095616 | 76 | 262 | 0.0 | 0.0 | 0.00 | 0.00 | 0.00 | 79 | 1017.6 |
| 20260831095055 | 76 | 262 | 0.0 | 0.0 | 0.00 | 0.00 | 0.00 | 79 | 1017.6 |
| 20260831094545 | 76 | 262 | 0.0 | 0.0 | 0.00 | 0.00 | 0.00 | 78 | 1017.6 |
| 20260831094507 | 75 | 262 | 0.0 | 0.0 | 0.00 | 0.00 | 0.00 | 78 | 1016.1 |
| 20260831094247 | 76 | 262 | 0.0 | 0.0 | 0.00 | 0.00 | 0.00 | 78 | 1017.6 |
| 20260831093528 | 76 | 262 | 0.0 | 0.0 | 0.00 | 0.00 | 0.00 | 78 | 1017.6 |
| 20260831093055 | 75 | 262 | 0.0 | 0.0 | 0.00 | 0.00 | 0.00 | 78 | 1016.2 |
| 20260831093007 | 76 | 262 | 0.0 | 0.0 | 0.00 | 0.00 | 0.00 | 78 | 1017.6 |
| 20260831092457 | 76 | 262 | 0.0 | 0.0 | 0.00 | 0.00 | 0.00 | 77 | 1017.6 |
| 20260831091953 | 76 | 262 | 0.0 | 0.0 | 0.00 | 0.00 | 0.00 | 77 | 1017.6 |
| 20260831091534 | 75 | 262 | 0.0 | 0.0 | 0.00 | 0.00 | 0.00 | 77 | 1016.2 |
| 20260831091455 | 76 | 262 | 0.0 | 0.0 | 0.00 | 0.00 | 0.00 | 77 | 1017.6 |
| 20260831090937 | 76 | 262 | 0.0 | 0.0 | 0.00 | 0.00 | 0.00 | 77 | 1017.6 |
| 20260831090419 | 76 | 263 | 0.0 | 0.0 | 0.00 | 0.00 | 0.00 | 77 | 1017.7 |
| 20260831090057 | 75 | 263 | 0.0 | 0.0 | 0.00 | 0.00 | 0.00 | 77 | 1016.2 |
| 20260831085920 | 76 | 263 | 0.0 | 0.0 | 0.00 | 0.00 | 0.00 | 77 | 1017.6 |
| 20260831085636 | 76 | 263 | 0.0 | 0.0 | 0.00 | 0.00 | 0.00 | 77 | 1017.6 |
| 20260831085402 | 76 | 263 | 0.0 | 0.0 | 0.00 | 0.00 | 0.00 | 78 | 1017.5 |
| 20260831084607 | 75 | 263 | 0.0 | 0.0 | 0.00 | 0.00 | 0.00 | 77 | 1016.0 |
| 20260831084416 | 76 | 263 | 0.0 | 0.0 | 0.00 | 0.00 | 0.00 | 78 | 1017.4 |
| 20260831083902 | 76 | 263 | 0.0 | 0.0 | 0.00 | 0.00 | 0.00 | 77 | 1017.4 |
| 20260831083626 | 76 | 263 | 0.0 | 0.0 | 0.00 | 0.00 | 0.00 | 77 | 1017.3 |
| 20260831083033 | 75 | 263 | 0.0 | 0.0 | 0.00 | 0.00 | 0.00 | 77 | 1015.8 |
| 20260831082859 | 76 | 263 | 0.0 | 2.6 | 0.00 | 0.00 | 0.00 | 77 | 1017.3 |
| 20260831082400 | 76 | 263 | 0.9 | 2.6 | 0.00 | 0.00 | 0.00 | 77 | 1017.2 |
| 20260831081900 | 76 | 262 | 0.9 | 2.6 | 0.00 | 0.00 | 0.00 | 77 | 1017.1 |
| 20260831081505 | 75 | 262 | 0.9 | 2.6 | 0.00 | 0.00 | 0.00 | 77 | 1015.5 |
| 20260831081343 | 76 | 260 | 0.9 | 1.7 | 0.00 | 0.00 | 0.00 | 77 | 1017.0 |
| 20260831080844 | 76 | 260 | 0.9 | 2.6 | 0.00 | 0.00 | 0.00 | 77 | 1016.8 |
| 20260831080325 | 76 | 260 | 0.9 | 1.7 | 0.00 | 0.00 | 0.00 | 77 | 1016.8 |
| 20260831080041 | 75 | 259 | 0.9 | 1.7 | 0.00 | 0.00 | 0.00 | 77 | 1015.4 |
| 20260831075823 | 76 | 259 | 0.9 | 1.7 | 0.00 | 0.00 | 0.00 | 77 | 1016.8 |
| 20260831075325 | 76 | 259 | 0.9 | 2.6 | 0.00 | 0.00 | 0.00 | 77 | 1016.8 |
| 20260831074800 | 76 | 259 | 0.9 | 2.6 | 0.00 | 0.00 | 0.00 | 77 | 1017.0 |
| 20260831074532 | 76 | 259 | 0.9 | 2.6 | 0.00 | 0.00 | 0.00 | 77 | 1015.5 |
| 20260831074257 | 76 | 257 | 0.9 | 1.7 | 0.00 | 0.00 | 0.00 | 77 | 1017.0 |
| 20260831073758 | 76 | 257 | 0.9 | 1.7 | 0.00 | 0.00 | 0.00 | 77 | 1016.8 |
| 20260831073255 | 76 | 257 | 0.9 | 1.7 | 0.00 | 0.00 | 0.00 | 77 | 1017.0 |
| 20260831073013 | 76 | 257 | 0.9 | 1.7 | 0.00 | 0.00 | 0.00 | 77 | 1015.6 |
| 20260831072756 | 76 | 257 | 0.0 | 1.7 | 0.00 | 0.00 | 0.00 | 77 | 1017.1 |
| 20260831072255 | 76 | 256 | 0.0 | 0.9 | 0.00 | 0.00 | 0.00 | 77 | 1017.2 |
| 20260831071739 | 76 | 256 | 0.0 | 1.7 | 0.00 | 0.00 | 0.00 | 77 | 1017.3 |
| 20260831071551 | 76 | 256 | 0.0 | 0.9 | 0.00 | 0.00 | 0.00 | 77 | 1015.8 |
| 20260831071205 | 76 | 256 | 0.0 | 0.9 | 0.00 | 0.00 | 0.00 | 77 | 1017.3 |
| 20260831070638 | 76 | 256 | 0.0 | 1.7 | 0.00 | 0.00 | 0.00 | 77 | 1017.2 |
| 20260831070110 | 76 | 256 | 0.0 | 0.9 | 0.00 | 0.00 | 0.00 | 77 | 1017.3 |
| 20260831070055 | 76 | 256 | 0.0 | 1.7 | 0.00 | 0.00 | 0.00 | 77 | 1015.9 |
| 20260831065804 | 76 | 256 | 0.0 | 0.0 | 0.00 | 0.00 | 0.00 | 78 | 1017.4 |
| 20260831065041 | 76 | 256 | 0.0 | 1.7 | 0.00 | 0.00 | 0.00 | 78 | 1017.4 |
| 20260831064541 | 76 | 256 | 0.9 | 1.7 | 0.00 | 0.00 | 0.00 | 77 | 1017.4 |
| 20260831064509 | 76 | 256 | 0.0 | 1.7 | 0.00 | 0.00 | 0.00 | 77 | 1016.0 |
| 20260831064034 | 77 | 256 | 0.9 | 1.7 | 0.00 | 0.00 | 0.00 | 77 | 1017.5 |
| 20260831063534 | 77 | 255 | 0.9 | 1.7 | 0.00 | 0.00 | 0.00 | 76 | 1017.6 |
| 20260831063111 | 76 | 255 | 0.0 | 1.7 | 0.00 | 0.00 | 0.00 | 76 | 1016.2 |
| 20260831063029 | 77 | 255 | 0.0 | 1.7 | 0.00 | 0.00 | 0.00 | 76 | 1017.7 |
| 20260831062503 | 77 | 254 | 0.0 | 0.9 | 0.00 | 0.00 | 0.00 | 75 | 1017.7 |
| 20260831062152 | 77 | 254 | 0.0 | 0.9 | 0.00 | 0.00 | 0.00 | 75 | 1017.9 |
| 20260831061607 | 77 | 254 | 0.0 | 0.9 | 0.00 | 0.00 | 0.00 | 75 | 1016.5 |
| 20260831061431 | 77 | 254 | 0.0 | 0.9 | 0.00 | 0.00 | 0.00 | 75 | 1018.0 |
| 20260831060929 | 77 | 254 | 0.0 | 0.0 | 0.00 | 0.00 | 0.00 | 75 | 1018.0 |
| 20260831060404 | 77 | 254 | 0.0 | 0.0 | 0.00 | 0.00 | 0.00 | 75 | 1018.0 |
| 20260831060041 | 77 | 254 | 0.0 | 0.0 | 0.00 | 0.00 | 0.00 | 75 | 1016.7 |
| 20260831055902 | 77 | 254 | 0.0 | 0.0 | 0.00 | 0.00 | 0.00 | 75 | 1018.1 |
| 20260831055334 | 77 | 254 | 0.0 | 0.0 | 0.00 | 0.00 | 0.00 | 75 | 1018.1 |
| 20260831054833 | 77 | 255 | 0.0 | 0.0 | 0.00 | 0.00 | 0.00 | 75 | 1017.9 |
| 20260831054545 | 77 | 254 | 0.0 | 0.0 | 0.00 | 0.00 | 0.00 | 75 | 1016.5 |
| 20260831054306 | 77 | 254 | 0.0 | 0.9 | 0.00 | 0.00 | 0.00 | 74 | 1017.9 |
| 20260831053741 | 77 | 254 | 0.0 | 0.9 | 0.00 | 0.00 | 0.00 | 74 | 1017.8 |
| 20260831053227 | 77 | 255 | 0.0 | 0.0 | 0.00 | 0.00 | 0.00 | 74 | 1017.9 |
| 20260831053028 | 77 | 255 | 0.0 | 0.0 | 0.00 | 0.00 | 0.00 | 74 | 1016.6 |
| 20260831052731 | 77 | 255 | 0.0 | 0.0 | 0.00 | 0.00 | 0.00 | 74 | 1018.0 |
| 20260831052201 | 77 | 255 | 0.0 | 0.0 | 0.00 | 0.00 | 0.00 | 74 | 1018.0 |
| 20260831051658 | 77 | 255 | 0.0 | 0.9 | 0.00 | 0.00 | 0.00 | 74 | 1018.0 |
| 20260831051536 | 77 | 255 | 0.0 | 0.9 | 0.00 | 0.00 | 0.00 | 74 | 1016.6 |
| 20260831051129 | 77 | 255 | 0.0 | 0.9 | 0.00 | 0.00 | 0.00 | 74 | 1018.0 |
| 20260831050625 | 77 | 255 | 0.0 | 0.0 | 0.00 | 0.00 | 0.00 | 73 | 1018.0 |
| 20260831050123 | 78 | 255 | 0.0 | 0.9 | 0.00 | 0.00 | 0.00 | 73 | 1017.9 |
| 20260831050036 | 77 | 255 | 0.0 | 0.9 | 0.00 | 0.00 | 0.00 | 73 | 1016.5 |
| 20260831045625 | 78 | 255 | 0.0 | 0.9 | 0.00 | 0.00 | 0.00 | 73 | 1017.7 |
| 20260831045057 | 78 | 255 | 0.0 | 0.9 | 0.00 | 0.00 | 0.00 | 73 | 1017.7 |
| 20260831044545 | 77 | 255 | 0.0 | 0.9 | 0.00 | 0.00 | 0.00 | 73 | 1016.3 |
| 20260831044527 | 78 | 255 | 0.0 | 0.9 | 0.00 | 0.00 | 0.00 | 73 | 1017.7 |
| 20260831044027 | 78 | 255 | 0.0 | 0.9 | 0.00 | 0.00 | 0.00 | 73 | 1017.7 |
| 20260831043457 | 78 | 255 | 0.0 | 0.0 | 0.00 | 0.00 | 0.00 | 72 | 1017.8 |
| 20260831043040 | 77 | 255 | 0.0 | 0.0 | 0.00 | 0.00 | 0.00 | 72 | 1016.5 |
| 20260831042956 | 78 | 255 | 0.0 | 0.0 | 0.00 | 0.00 | 0.00 | 72 | 1017.9 |
| 20260831042651 | 78 | 255 | 0.0 | 0.0 | 0.00 | 0.00 | 0.00 | 71 | 1017.9 |
| 20260831041904 | 78 | 255 | 0.0 | 0.0 | 0.00 | 0.00 | 0.00 | 71 | 1018.0 |
| 20260831041503 | 78 | 255 | 0.0 | 0.0 | 0.00 | 0.00 | 0.00 | 71 | 1016.5 |
| 20260831041336 | 78 | 255 | 0.0 | 0.9 | 0.00 | 0.00 | 0.00 | 71 | 1017.9 |
| 20260831040833 | 78 | 255 | 0.0 | 0.9 | 0.00 | 0.00 | 0.00 | 71 | 1017.9 |
| 20260831040309 | 78 | 255 | 0.0 | 0.9 | 0.00 | 0.00 | 0.00 | 70 | 1017.9 |
| 20260831035809 | 78 | 254 | 0.0 | 0.9 | 0.00 | 0.00 | 0.00 | 70 | 1017.9 |
| 20260831035519 | 79 | 254 | 0.0 | 1.7 | 0.00 | 0.00 | 0.00 | 70 | 1017.9 |
| 20260831034753 | 79 | 254 | 0.9 | 1.7 | 0.00 | 0.00 | 0.00 | 69 | 1017.9 |
| 20260831034528 | 79 | 255 | 0.0 | 1.7 | 0.00 | 0.00 | 0.00 | 69 | 1016.7 |
| 20260831034227 | 79 | 254 | 1.7 | 1.7 | 0.00 | 0.00 | 0.00 | 69 | 1018.0 |
| 20260831034140 | 80 | 254 | 0.9 | 1.7 | 0.00 | 0.00 | 0.00 | 68 | 1018.0 |
| 20260831033159 | 80 | 250 | 0.9 | 1.7 | 0.00 | 0.00 | 0.00 | 68 | 1018.0 |
| 20260831033117 | 80 | 273 | 0.9 | 1.7 | 0.00 | 0.00 | 0.00 | 67 | 1018.1 |
| 20260831033042 | 79 | 251 | 0.9 | 1.7 | 0.00 | 0.00 | 0.00 | 67 | 1016.7 |
| 20260831032106 | 80 | 273 | 0.9 | 1.7 | 0.00 | 0.00 | 0.00 | 67 | 1018.1 |
| 20260831031605 | 80 | 253 | 1.7 | 1.7 | 0.00 | 0.00 | 0.00 | 67 | 1018.0 |
| 20260831031541 | 80 | 253 | 0.9 | 1.7 | 0.00 | 0.00 | 0.00 | 67 | 1016.7 |
| 20260831031058 | 80 | 253 | 1.7 | 2.6 | 0.00 | 0.00 | 0.00 | 66 | 1017.9 |
| 20260831030552 | 80 | 253 | 1.7 | 2.6 | 0.00 | 0.00 | 0.00 | 66 | 1017.9 |
| 20260831030051 | 80 | 253 | 0.9 | 1.7 | 0.00 | 0.00 | 0.00 | 66 | 1017.8 |
| 20260831030022 | 80 | 253 | 0.9 | 1.7 | 0.00 | 0.00 | 0.00 | 66 | 1016.5 |
| 20260831025549 | 80 | 244 | 0.9 | 1.7 | 0.00 | 0.00 | 0.00 | 65 | 1017.8 |
| 20260831025049 | 80 | 273 | 0.9 | 2.6 | 0.00 | 0.00 | 0.00 | 65 | 1017.9 |
| 20260831024555 | 80 | 240 | 0.9 | 2.6 | 0.00 | 0.00 | 0.00 | 64 | 1016.6 |
| 20260831024540 | 81 | 240 | 1.7 | 2.6 | 0.00 | 0.00 | 0.00 | 64 | 1017.9 |
| 20260831024035 | 81 | 241 | 1.7 | 2.6 | 0.00 | 0.00 | 0.00 | 64 | 1017.9 |
| 20260831023516 | 81 | 240 | 0.9 | 1.7 | 0.00 | 0.00 | 0.00 | 64 | 1017.9 |
| 20260831023046 | 80 | 240 | 0.9 | 1.7 | 0.00 | 0.00 | 0.00 | 64 | 1016.6 |
| 20260831023014 | 81 | 273 | 0.9 | 1.7 | 0.00 | 0.00 | 0.00 | 64 | 1017.9 |
| 20260831022512 | 81 | 273 | 0.0 | 1.7 | 0.00 | 0.00 | 0.00 | 64 | 1017.9 |
| 20260831022016 | 81 | 273 | 0.9 | 2.6 | 0.00 | 0.00 | 0.00 | 64 | 1017.9 |
| 20260831021519 | 81 | 273 | 0.0 | 1.7 | 0.00 | 0.00 | 0.00 | 64 | 1016.6 |
| 20260831021449 | 81 | 273 | 0.9 | 2.6 | 0.00 | 0.00 | 0.00 | 64 | 1017.9 |
| 20260831020922 | 81 | 273 | 1.7 | 2.6 | 0.00 | 0.00 | 0.00 | 64 | 1017.9 |
| 20260831020423 | 81 | 273 | 1.7 | 2.6 | 0.00 | 0.00 | 0.00 | 64 | 1017.9 |
| 20260831020029 | 81 | 273 | 1.7 | 2.6 | 0.00 | 0.00 | 0.00 | 64 | 1016.5 |
| 20260831015859 | 81 | 273 | 0.9 | 2.6 | 0.00 | 0.00 | 0.00 | 64 | 1017.8 |
| 20260831015334 | 81 | 193 | 0.9 | 1.7 | 0.00 | 0.00 | 0.00 | 64 | 1017.9 |